This demonstration page uses our WeatherBlox Daily Observations layout. Learn more.

Left ArrowRight Arrow

Hourly Observations for January 30, 2016

Temp ( °F °C ) Dew Point ( °F °C ) Humidity (%) Winds ( mph kmh ) Pressure ( in mb ) Visibility ( mi km ) Precip ( " mm )
12:53 am 00:53 Clear 35 1.7 30 -1.1 82 82 WSW 3 6 29.70 1006 10 16 0.00 0.00
1:53 am 01:53 Clear 32 0 28 -2.2 85 85 WSW 3 6 29.69 1005 10 16 0.00 0.00
2:53 am 02:53 Clear 34 1.1 28 -2.2 79 79 Calm 29.69 1005 10 16 0.00 0.00
3:53 am 03:53 Clear 32 0 27 -2.8 82 82 SW 3 6 29.70 1006 10 16 0.00 0.00
4:53 am 04:53 Clear 33 0.6 28 -2.2 82 82 SSW 3 6 29.68 1005 10 16 0.00 0.00
5:53 am 05:53 Clear 33 0.6 28 -2.2 82 82 S 7 11 29.66 1005 10 16 0.00 0.00
6:53 am 06:53 Clear 32 0 28 -2.2 85 85 S 5 7 29.68 1005 10 16 0.00 0.00
7:53 am 07:53 Sunny 33 0.6 29 -1.7 85 85 S 6 9 29.65 1004 10 16 0.00 0.00
8:53 am 08:53 Sunny 35 1.7 31 -0.6 85 85 S 7 11 29.66 1005 10 16 0.00 0.00
9:53 am 09:53 Sunny 38 3.3 32 0 79 79 SSW 9 15 29.65 1004 10 16 0.00 0.00
10:53 am 10:53 Sunny 40 4.4 33 0.6 77 77 SSW 9 15 29.63 1003 10 16 0.00 0.00
11:53 am 11:53 Sunny 46 7.8 36 2.2 68 68 SW 10 17 29.60 1002 10 16 0.00 0.00
12:53 pm 12:53 Sunny 52 11.1 34 1.1 50 50 SSW 15 24 29.56 1001 10 16 0.00 0.00
1:53 pm 13:53 Sunny 53 11.7 35 1.7 51 51 SSW 14 22 29.53 1000 10 16 0.00 0.00
2:53 pm 14:53 Sunny 54 12.2 36 2.2 51 51 SSW 10 17 29.50 999 10 16 0.00 0.00
3:53 pm 15:53 Sunny 53 11.7 36 2.2 52 52 Calm 29.52 1000 10 16 0.00 0.00
4:53 pm 16:53 Sunny 51 10.6 37 2.8 59 59 SSE 3 6 29.52 1000 10 16 0.00 0.00
5:53 pm 17:53 Clear 47 8.3 37 2.8 69 69 SSE 5 7 29.55 1001 10 16 0.00 0.00
6:53 pm 18:53 Clear 43 6.1 36 2.2 76 76 N 7 11 29.59 1002 10 16 0.00 0.00
7:53 pm 19:53 Clear 38 3.3 33 0.6 83 83 NNE 8 13 29.59 1002 10 16 0.00 0.00
8:53 pm 20:53 Clear 38 3.3 33 0.6 83 83 N 12 19 29.60 1002 10 16 0.00 0.00
9:53 pm 21:53 Clear 37 2.8 32 0 82 82 N 12 19 29.63 1003 10 16 0.00 0.00
10:53 pm 22:53 Mostly Clear 36 2.2 31 -0.6 82 82 N 13 20 29.64 1004 10 16 0.00 0.00
11:53 pm 23:53 Cloudy 37 2.8 32 0 82 82 N 14 22 29.65 1004 10 16 0.00 0.00

Powered by AerisWeather